Beaver, WV

4:42 PM EDT on August 28, 2016 (GMT -0400)
Raleigh County Memorial

Weather History for KBKW - December, 2012

Change the Weather History Date:

Thursday, December 6, 2012

  Actual Average Record
Temperature  
Mean Temperature 39 °F 37 °F  
Max Temperature 50 °F 45 °F 72 °F (1916)
Min Temperature 27 °F 29 °F 6 °F (1984)
Degree Days  
Heating Degree Days 26 28  
Month to date heating degree days 86 165  
Since 1 July heating degree days 1340 1305  
Cooling Degree Days 0 0  
Month to date cooling degree days 0 0  
Year to date cooling degree days 761 557  
Moisture  
Dew Point 32 °F    
Average Humidity 73    
Maximum Humidity 92    
Minimum Humidity 53    
Precipitation  
Precipitation 0.02 in 0.10 in 1.40 in (2013)
Month to date precipitation 0.10 0.59  
Year to date precipitation 41.28 38.78  
Snow  
Snow 0.00 in - - ()
Month to date snowfall 0.0  
Since 1 September snowfall 22.9  
Snow Depth 0.00 in    
Sea Level Pressure  
Sea Level Pressure 30.18 in    
Wind  
Wind Speed 7 mph (SE)    
Max Wind Speed 16 mph    
Max Gust Speed 25 mph    
Visibility 10 miles    
Events Rain    
T = Trace of Precipitation, MM = Missing Value Source: NWS Daily Summary

Daily Weather History Graph

Daily Weather History Graph

Search for Another Location

Airport or City:

Trip Planner

Search our weather history database for the weather conditions in past years. The results will help you decide how hot, cold, wet, or windy it might be!

Date:

Astronomy

Dec. 06, 2012 Rise Set
Actual Time 7:26 AM EST 5:05 PM EST
Civil Twilight 6:56 AM EST 5:34 PM EST
Nautical Twilight 6:24 AM EST 6:07 PM EST
Astronomical Twilight 5:52 AM EST 6:39 PM EST
Moon No Moon Rise 12:24 PM EST (12/6)
Length of Visible Light 10h 37m
Length of Day
9h 39m
Waning Gibbous, 49% of the Moon is Illuminated
Dec 6
Waning Gibbous
Dec 13
New
Dec 20
First Quarter
Dec 28
Full
Jan 4
Last Quarter

Hourly Weather History & Observations

Time (EST) Temp. Windchill Dew Point Humidity Pressure Visibility Wind Dir Wind Speed Gust Speed Precip Events Conditions
12:51 AM 28.9 °F - 27.0 °F 92% 30.26 in 8.0 mi Calm Calm - N/A   Clear
1:51 AM 30.9 °F - 27.0 °F 85% 30.25 in 10.0 mi Calm Calm - N/A   Clear
2:51 AM 28.9 °F - 26.1 °F 89% 30.26 in 5.0 mi Calm Calm - N/A   Clear
3:51 AM 28.9 °F 25.2 °F 27.0 °F 92% 30.25 in 8.0 mi SE 3.5 mph - N/A   Clear
4:51 AM 32.0 °F 28.7 °F 28.0 °F 85% 30.24 in 10.0 mi ESE 3.5 mph - N/A   Clear
5:51 AM 34.0 °F 28.8 °F 28.9 °F 82% 30.24 in 10.0 mi ESE 5.8 mph - N/A   Clear
6:51 AM 34.0 °F 28.8 °F 28.9 °F 82% 30.24 in 10.0 mi ESE 5.8 mph - N/A   Clear
7:51 AM 36.0 °F 27.5 °F 28.0 °F 73% 30.25 in 10.0 mi SE 12.7 mph 20.7 mph N/A   Clear
8:51 AM 37.9 °F 29.6 °F 28.9 °F 70% 30.25 in 10.0 mi SE 13.8 mph 25.3 mph N/A   Clear
9:51 AM 41.0 °F 34.7 °F 28.9 °F 62% 30.24 in 10.0 mi SE 10.4 mph 18.4 mph N/A   Clear
10:51 AM 43.0 °F 37.7 °F 30.0 °F 60% 30.24 in 10.0 mi SE 9.2 mph - N/A   Scattered Clouds
11:06 AM 44.6 °F 40.2 °F 30.2 °F 57% 30.19 in 10.0 mi SE 8.1 mph 16.1 mph N/A   Mostly Cloudy
11:51 AM 46.0 °F 43.1 °F 30.9 °F 56% 30.21 in 10.0 mi Variable 5.8 mph - N/A   Mostly Cloudy
12:06 PM 48.2 °F - 32.0 °F 54% 30.16 in 10.0 mi SE 8.1 mph - N/A   Scattered Clouds
12:13 PM 46.4 °F 41.1 °F 32.0 °F 57% 30.16 in 10.0 mi SSE 11.5 mph - N/A   Mostly Cloudy
12:51 PM 48.9 °F - 33.1 °F 54% 30.19 in 10.0 mi South 10.4 mph - N/A   Overcast
1:51 PM 48.9 °F - 33.1 °F 54% 30.17 in 10.0 mi SSE 8.1 mph - N/A   Clear
2:21 PM 48.2 °F - 32.0 °F 54% 30.12 in 10.0 mi ESE 10.4 mph - N/A   Mostly Cloudy
2:44 PM 48.2 °F - 32.0 °F 54% 30.12 in 10.0 mi SE 9.2 mph - N/A   Overcast
2:51 PM 48.0 °F - 32.0 °F 54% 30.17 in 10.0 mi SSE 10.4 mph - N/A   Overcast
3:51 PM 48.0 °F - 32.0 °F 54% 30.18 in 10.0 mi SE 9.2 mph - N/A   Overcast
4:51 PM 46.9 °F - 32.0 °F 56% 30.17 in 10.0 mi SSE 8.1 mph - N/A   Overcast
5:09 PM 46.4 °F 44.3 °F 32.0 °F 57% 30.13 in 10.0 mi SSE 4.6 mph - N/A   Overcast
5:51 PM 45.0 °F 40.1 °F 34.0 °F 65% 30.17 in 10.0 mi SSE 9.2 mph - 0.00 in Rain Light Rain
6:35 PM 44.6 °F 40.2 °F 33.8 °F 66% 30.12 in 10.0 mi SSE 8.1 mph - 0.00 in   Overcast
6:51 PM 45.0 °F 40.6 °F 34.0 °F 65% 30.17 in 10.0 mi SSE 8.1 mph - 0.00 in   Overcast
7:51 PM 45.0 °F 40.6 °F 35.1 °F 68% 30.17 in 10.0 mi SSE 8.1 mph - N/A   Overcast
8:51 PM 45.0 °F 41.2 °F 36.0 °F 71% 30.16 in 10.0 mi SSE 6.9 mph - N/A   Overcast
9:21 PM 44.6 °F 39.7 °F 37.4 °F 76% 30.12 in 10.0 mi SSE 9.2 mph - N/A   Overcast
9:40 PM 44.6 °F 39.2 °F 39.2 °F 81% 30.11 in 6.0 mi SE 10.4 mph - 0.01 in Rain Rain
9:51 PM 44.1 °F 38.6 °F 39.9 °F 85% 30.15 in 9.0 mi SE 10.4 mph - 0.02 in Rain Light Rain
10:12 PM 44.6 °F 39.2 °F 39.2 °F 81% 30.11 in 10.0 mi SE 10.4 mph - 0.00 in   Overcast
10:36 PM 44.6 °F 39.2 °F 39.2 °F 81% 30.11 in 10.0 mi SE 10.4 mph 18.4 mph 0.00 in   Overcast
10:51 PM 44.1 °F 39.0 °F 39.9 °F 85% 30.13 in 10.0 mi SE 9.2 mph - 0.00 in Rain Light Rain
11:51 PM 44.1 °F 38.6 °F 39.9 °F 85% 30.12 in 10.0 mi SE 10.4 mph - 0.00 in   Overcast